Lancaster, OH

1:09 PM EST on December 09, 2016 (GMT -0500)
Fairfield County

Weather History for KLHQ - May, 2013

Change the Weather History Date:

Wednesday, May 8, 2013

  Actual Average Record
Temperature  
Mean Temperature 62 °F -  
Max Temperature 73 °F 68 °F 89 °F (2015)
Min Temperature 52 °F 43 °F 28 °F (1947)
Degree Days  
Heating Degree Days 2    
Growing Degree Days 12 (Base 50)    
Moisture  
Dew Point 53 °F    
Average Humidity 72    
Maximum Humidity 93    
Minimum Humidity 49    
Precipitation  
Precipitation 0.00 in - - ()
Sea Level Pressure  
Sea Level Pressure 29.96 in    
Wind  
Wind Speed 4 mph (NNE)    
Max Wind Speed 10 mph    
Max Gust Speed -    
Visibility 10 miles    
Events Thunderstorm    
Averages and records for this station are not official NWS values.
T = Trace of Precipitation, MM = Missing Value Source: NWS Daily Summary

Daily Weather History Graph

Daily Weather History Graph

Search for Another Location

Airport or City:

Trip Planner

Search our weather history database for the weather conditions in past years. The results will help you decide how hot, cold, wet, or windy it might be!

Date:

Astronomy

May. 08, 2013 Rise Set
Actual Time 6:22 AM EDT 8:32 PM EDT
Civil Twilight 5:52 AM EDT 9:02 PM EDT
Nautical Twilight 5:16 AM EDT 9:38 PM EDT
Astronomical Twilight 4:36 AM EDT 10:18 PM EDT
Moon 5:29 AM EDT (5/8) 7:29 PM EDT (5/8)
Length of Visible Light 15h 09m
Length of Day
14h 09m
Waning Crescent, 2% of the Moon is Illuminated
May 8
Waning Crescent
May 9
New
May 18
First Quarter
May 25
Full
May 31
Last Quarter

Hourly Weather History & Observations

Time (EDT) Temp. Dew Point Humidity Pressure Visibility Wind Dir Wind Speed Gust Speed Precip Events Conditions
12:53 AM 53.1 °F 50.0 °F 89% 29.95 in 6.0 mi Calm Calm - N/A   Clear
1:53 AM 52.0 °F 50.0 °F 93% 29.94 in 7.0 mi Calm Calm - N/A   Clear
2:53 AM 54.0 °F 51.1 °F 90% 29.91 in 9.0 mi North 4.6 mph - N/A   Clear
3:53 AM 54.0 °F 51.1 °F 90% 29.92 in 10.0 mi North 3.5 mph - N/A   Scattered Clouds
4:53 AM 55.0 °F 52.0 °F 89% 29.91 in 10.0 mi NNE 3.5 mph - N/A   Overcast
5:53 AM 55.9 °F 52.0 °F 87% 29.91 in 10.0 mi North 5.8 mph - N/A   Overcast
6:53 AM 55.9 °F 52.0 °F 87% 29.92 in 10.0 mi NNW 3.5 mph - N/A   Overcast
7:53 AM 60.1 °F 53.1 °F 78% 29.94 in 10.0 mi NNE 6.9 mph - N/A   Overcast
8:53 AM 62.1 °F 55.0 °F 78% 29.94 in 10.0 mi NNE 9.2 mph - N/A   Overcast
9:53 AM 63.0 °F 54.0 °F 72% 29.96 in 10.0 mi ENE 10.4 mph - N/A   Clear
10:20 AM 62.6 °F 53.6 °F 72% 29.98 in 10.0 mi East 10.4 mph - N/A   Mostly Cloudy
10:46 AM 64.4 °F 55.4 °F 73% 29.98 in 10.0 mi ENE 9.2 mph - N/A   Scattered Clouds
10:53 AM 64.0 °F 54.0 °F 70% 29.98 in 10.0 mi ENE 9.2 mph - N/A   Scattered Clouds
11:42 AM 64.4 °F 53.6 °F 68% 29.99 in 10.0 mi ENE 8.1 mph - N/A   Mostly Cloudy
11:53 AM 64.0 °F 54.0 °F 70% 29.99 in 10.0 mi East 9.2 mph - N/A   Mostly Cloudy
12:24 PM 64.4 °F 53.6 °F 68% 29.99 in 10.0 mi ENE 4.6 mph - N/A   Scattered Clouds
12:31 PM 64.4 °F 53.6 °F 68% 29.99 in 10.0 mi NE 8.1 mph - N/A   Mostly Cloudy
12:41 PM 64.4 °F 53.6 °F 68% 29.99 in 10.0 mi ENE 6.9 mph - N/A   Scattered Clouds
12:53 PM 64.9 °F 54.0 °F 68% 29.99 in 10.0 mi ENE 6.9 mph - N/A   Mostly Cloudy
1:01 PM 64.4 °F 53.6 °F 68% 29.99 in 10.0 mi East 9.2 mph - N/A   Scattered Clouds
1:53 PM 66.0 °F 52.0 °F 60% 29.98 in 10.0 mi Calm Calm - N/A   Scattered Clouds
2:53 PM 71.1 °F 53.1 °F 53% 29.96 in 10.0 mi North 9.2 mph - N/A   Partly Cloudy
3:53 PM 71.1 °F 51.1 °F 49% 29.94 in 10.0 mi Calm Calm - N/A   Partly Cloudy
4:53 PM 73.0 °F 53.1 °F 49% 29.94 in 10.0 mi NW 6.9 mph - N/A   Scattered Clouds
5:53 PM 72.0 °F 52.0 °F 49% 29.94 in 10.0 mi NW 5.8 mph - N/A   Partly Cloudy
6:53 PM 68.0 °F 52.0 °F 56% 29.93 in 10.0 mi West 8.1 mph - N/A   Mostly Cloudy
7:53 PM 64.0 °F 53.1 °F 67% 29.94 in 10.0 mi West 4.6 mph - N/A   Clear
8:06 PM 64.4 °F 51.8 °F 64% 29.95 in 10.0 mi West 3.5 mph - N/A Thunderstorm Clear
8:21 PM 64.4 °F 51.8 °F 64% 29.96 in 10.0 mi WSW 4.6 mph - N/A   Clear
8:53 PM 64.0 °F 52.0 °F 65% 29.96 in 10.0 mi Calm Calm - N/A   Partly Cloudy
9:53 PM 57.9 °F 52.0 °F 81% 29.97 in 10.0 mi Calm Calm - N/A   Scattered Clouds
10:53 PM 59.0 °F 52.0 °F 78% 29.99 in 10.0 mi Calm Calm - N/A   Partly Cloudy
11:53 PM 55.9 °F 52.0 °F 87% 29.99 in 10.0 mi Calm Calm - N/A   Clear